Temp
12 12 12 12 12 12 12 12 12 12 12 13 12 12 12 12 11 11 11 10 10 10 10 9 9 9 10 10 10 10 10 10 9 9 9 9 9 9 9 9 8 7 6 6 5 4 3 5 6 6 6 6
12 12 12 12 12 12 12 12 12 12 12 12 13 12 12 12 11 11 10 10 10 10 10 10 9 9 9 9 9 10 9 9 9 9 9 9 9 9 9 8 8 7 6 6 5 3 2 4 6 6 6 6
12 12 12 12 11 11 11 11 11 12 12 12 12 12 12 11 11 10 10 10 10 10 10 10 9 9 9 9 9 9 9 9 9 9 8 8 8 8 8 7 7 6 6 5 4 2 3 4 5 5 5 5
12 12 12 11 11 11 11 11 11 11 12 12 11 12 12 11 11 10 10 9 10 9 9 9 9 9 9 9 9 9 9 9 8 8 8 8 8 8 7 7 6 5 5 4 3 2 4 5 5 5 5 5
12 12 11 11 11 11 11 11 11 11 11 11 11 11 11 11 11 10 10 9 9 9 9 9 8 8 8 9 9 9 9 8 8 8 8 8 8 7 7 6 5 5 4 4 3 3 4 4 4 4 4 4
13 12 11 11 11 11 11 11 11 11 11 11 11 11 11 11 11 10 10 9 9 9 9 9 8 8 8 8 9 9 9 8 8 8 8 8 7 7 6 5 5 4 3 3 3 4 4 4 3 4 4 4
13 12 11 11 11 11 11 11 11 11 11 11 11 11 10 11 11 10 10 10 9 9 9 8 8 8 8 8 8 8 8 8 8 8 8 7 7 6 6 4 4 4 3 2 3 4 4 3 4 4 4 4
12 12 11 11 11 11 11 11 10 11 11 11 11 11 11 11 10 10 10 9 9 9 9 8 8 8 7 7 7 8 8 8 8 8 8 7 7 6 5 4 3 3 3 3 3 4 4 4 4 5 4 4
12 12 11 11 11 11 11 11 10 10 10 10 10 10 10 10 10 10 9 9 9 9 8 8 8 7 7 7 7 7 7 7 8 8 7 7 6 5 5 4 3 3 3 3 3 3 4 4 5 4 4 4
12 12 11 11 11 11 11 10 10 10 10 10 10 10 10 10 10 9 9 9 9 8 8 8 7 7 7 7 7 7 7 7 7 7 7 7 6 5 5 4 3 3 3 3 3 3 4 4 4 4 4 4
11 11 12 11 11 11 10 10 10 10 10 10 10 10 10 10 10 9 9 9 8 8 8 8 7 7 7 7 7 7 7 7 7 7 7 6 6 5 5 4 4 3 3 3 3 3 3 3 3 3 3 3
10 10 11 11 10 11 11 10 10 10 10 10 10 10 10 10 9 9 9 9 8 8 8 8 7 7 7 7 7 7 7 6 6 6 6 6 6 5 5 4 4 3 3 3 3 3 3 3 3 3 2 2
10 9 9 10 10 10 10 10 10 10 10 10 10 10 10 10 9 9 9 9 9 8 8 8 8 8 7 7 7 7 7 6 6 6 6 5 5 5 4 4 3 3 3 3 3 2 2 3 3 2 2 2
10 10 9 9 9 9 9 10 10 10 10 9 10 10 10 10 9 9 9 9 9 9 8 8 8 8 8 7 7 7 7 6 6 6 5 5 5 4 4 4 3 3 3 3 3 2 2 2 2 2 2 2
9 9 9 9 9 9 8 9 9 9 9 9 9 10 10 10 10 9 9 9 9 9 9 8 8 8 8 7 7 7 7 6 6 5 5 5 5 4 4 3 3 3 3 2 3 2 2 2 2 2 2 2
8 9 8 9 8 8 8 8 8 8 8 8 8 9 9 9 10 9 9 9 9 9 9 8 8 8 7 8 8 8 7 6 6 5 5 5 5 4 4 3 3 3 2 2 2 2 2 1 1 1 1 1
8 8 8 8 8 8 8 8 8 8 8 8 8 7 8 8 8 8 8 9 9 9 9 9 8 8 8 8 8 8 7 6 6 5 5 4 4 4 3 3 2 2 2 2 1 1 1 1 1 1 1 1
6 7 7 7 8 8 7 7 7 7 7 7 7 7 7 7 7 7 7 7 8 8 8 8 8 8 8 8 7 7 6 6 5 5 4 4 4 3 3 3 2 2 2 2 1 1 1 1 0 0 0 0
5 6 6 7 7 7 7 7 7 7 7 7 7 7 7 7 7 7 7 7 7 7 7 7 7 7 7 7 7 6 6 6 5 5 4 4 4 3 2 3 2 2 2 2 1 1 1 1 0 0 0 0
5 5 5 6 6 6 6 6 6 7 7 7 7 6 6 7 7 7 7 7 7 6 6 6 6 7 6 6 6 6 5 5 5 4 4 4 4 3 2 2 2 2 2 2 1 1 0 0 0 -0 -0 -0
5 5 5 5 5 5 5 5 6 6 6 6 6 6 6 6 6 7 7 7 7 6 6 6 6 6 6 6 6 5 5 5 4 4 4 3 3 3 3 2 2 2 2 2 1 1 0 0 -0 -0 -0 -0
4 4 5 5 5 5 5 5 5 5 5 5 5 6 6 5 5 5 6 6 6 6 6 6 6 6 6 6 6 5 5 4 4 4 4 4 3 3 3 3 3 2 2 2 1 1 0 -0 -0 -0 -1 -1
3 3 4 5 5 5 5 5 5 4 4 5 5 5 5 5 5 5 5 5 5 5 5 5 5 5 5 5 5 5 4 4 4 3 4 4 3 3 3 3 3 3 2 1 1 0 0 -0 -0 -0 -1 -1
3 3 3 3 4 5 5 5 5 4 4 4 4 4 4 4 4 4 4 4 4 4 4 4 4 4 4 5 5 4 4 4 3 3 3 3 3 2 2 2 3 2 2 1 1 0 -0 -0 -1 -1 -1 -2
3 3 2 2 3 4 4 5 5 5 4 4 4 4 4 3 3 3 3 3 3 4 4 4 4 4 4 4 4 4 4 3 3 3 3 3 3 2 2 2 2 2 2 2 2 1 0 0 -0 -1 -1 -1
2 3 2 2 2 2 3 3 4 4 4 4 4 4 4 3 3 3 3 3 3 3 3 3 4 3 3 3 3 3 3 3 3 3 3 3 2 2 2 2 1 1 1 2 3 3 2 2 1 -1 -1 -1
2 2 2 2 2 2 2 2 3 3 3 3 4 4 4 4 3 3 3 3 3 3 3 3 3 3 3 3 3 3 3 3 2 2 2 2 3 2 2 2 1 0 1 3 3 3 4 4 3 1 -1 -1
2 2 2 2 2 2 2 2 2 3 3 3 3 3 3 3 3 3 3 3 2 2 2 2 3 3 3 2 2 2 2 3 2 2 2 2 3 3 2 2 1 -0 1 3 3 3 4 5 5 4 3 1
1 2 2 2 2 2 3 3 3 3 3 3 3 3 3 3 3 3 3 2 2 2 2 2 2 2 2 2 2 2 2 3 2 2 2 2 2 3 3 3 1 -0 -0 2 3 4 5 4 4 5 5 4
1 1 2 2 2 2 3 3 3 3 3 3 3 3 3 3 2 2 2 2 2 2 2 2 2 2 2 2 2 2 2 2 2 2 2 2 2 3 3 3 2 1 -0 0 2 3 5 4 4 6 5 4
1 1 1 1 1 2 2 2 2 2 2 2 2 2 2 3 3 2 2 2 2 2 2 2 2 2 1 2 2 2 2 2 2 2 2 2 2 2 3 3 3 2 -0 -0 0 1 3 3 3 5 4 5
Height
789 791 792 793 794 794 794 795 795 795 796 797 798 799 800 801 802 803 805 806 807 809 810 811 812 813 814 815 816 817 818 819 820 821 821 822 823 824 824 825 826 827 828 828 828 827 826 825 826 826 826 826
787 789 790 791 792 793 793 793 794 794 795 795 797 798 799 800 801 802 803 805 806 807 809 810 811 812 813 814 815 816 817 818 819 820 821 821 822 823 824 825 826 827 827 828 828 827 825 825 826 825 825 825
785 787 788 789 790 791 792 792 792 793 794 794 795 796 797 798 799 801 802 803 804 806 807 808 809 810 812 813 814 815 816 817 818 819 820 821 822 823 823 824 826 826 827 827 827 826 825 824 825 825 825 825
784 785 786 787 789 789 790 791 791 792 792 793 794 795 796 797 798 799 801 802 803 804 805 806 808 809 810 811 813 814 815 816 817 818 819 820 821 822 823 824 825 826 826 826 826 825 824 824 824 825 825 824
782 783 784 786 787 788 788 789 790 790 791 792 793 793 794 795 796 798 799 800 801 802 804 805 806 807 809 810 811 813 814 815 816 817 818 819 820 821 822 823 824 825 825 825 825 823 823 824 824 823 823 823
779 781 782 784 785 786 787 787 788 789 790 790 791 792 793 794 795 796 797 798 799 800 802 803 804 806 808 809 810 811 813 814 815 816 817 818 819 820 821 822 824 824 824 824 822 822 822 823 822 822 822 822
778 779 781 783 784 785 785 786 787 787 788 788 789 790 791 792 792 794 795 796 797 798 800 801 802 804 806 808 809 810 811 812 813 815 816 817 818 819 819 821 822 823 822 821 820 820 821 821 821 820 820 821
777 778 779 780 781 783 783 784 784 785 786 786 787 788 788 789 790 791 792 793 794 796 798 799 800 802 804 806 807 808 809 811 812 813 814 815 816 816 816 818 820 821 821 820 819 819 820 819 819 820 820 820
774 776 777 778 779 780 781 781 781 782 783 783 783 784 786 787 787 788 790 791 792 794 796 797 798 799 802 803 804 805 807 808 809 810 811 812 812 812 814 816 817 818 818 818 818 818 818 818 818 818 819 819
772 773 773 774 775 776 777 778 778 778 779 779 780 781 782 783 783 785 787 788 789 791 792 794 795 796 798 800 801 802 804 805 806 807 808 809 809 810 811 813 814 815 816 816 816 816 816 816 817 817 817 817
771 771 770 771 772 772 773 773 774 774 775 775 776 777 778 779 780 782 784 785 786 787 789 790 791 793 795 796 797 799 801 802 803 804 805 806 806 807 809 810 811 812 813 814 814 814 814 814 815 815 815 815
772 771 770 770 769 769 770 770 771 771 771 772 772 773 774 776 778 779 780 781 782 783 785 787 787 789 790 792 793 795 797 798 799 801 801 803 803 805 806 807 809 810 810 811 812 812 812 812 813 813 813 813
769 770 769 769 768 767 767 768 768 769 769 769 770 771 771 773 774 775 776 777 778 779 781 782 783 785 786 788 789 791 793 794 795 797 798 799 801 802 804 805 806 807 808 809 809 810 810 811 811 811 812 812
767 767 767 767 767 767 766 766 766 767 767 767 767 767 768 769 770 771 772 773 774 775 776 778 779 780 782 783 785 787 789 790 792 793 795 796 798 800 801 803 803 804 805 806 807 808 808 809 809 809 810 810
766 765 765 765 765 765 765 765 765 765 765 765 765 764 765 765 766 767 768 769 770 771 772 773 775 776 778 779 780 782 785 787 789 790 792 793 795 797 798 800 801 802 803 803 804 805 806 806 807 807 808 808
765 764 764 763 763 762 762 763 763 764 764 764 764 763 763 763 764 764 765 766 766 767 769 769 771 772 773 775 776 778 781 783 785 787 789 791 792 794 796 797 798 799 800 801 802 802 803 804 805 805 806 806
765 764 763 762 761 760 760 760 760 761 761 761 761 762 761 762 763 763 763 764 763 764 765 766 767 769 770 771 773 775 777 779 782 784 786 788 790 792 793 795 796 797 798 799 800 800 801 802 802 803 804 804
765 764 762 761 760 759 758 757 757 757 758 758 758 759 759 759 761 761 763 763 763 763 763 764 764 765 767 768 769 771 774 775 778 780 782 784 787 789 790 792 793 794 796 797 798 798 798 799 800 801 801 802
765 764 762 760 759 758 757 756 755 755 755 755 754 755 755 755 757 758 760 760 761 761 762 762 762 763 764 765 767 769 771 772 774 777 779 780 783 785 787 789 791 791 793 794 795 796 796 797 798 798 799 799
767 764 762 760 758 756 756 754 754 753 752 752 751 751 751 751 751 753 755 756 757 758 759 760 760 760 761 763 764 766 768 769 771 773 775 777 779 781 783 785 787 788 790 792 792 793 794 795 795 796 797 797
768 765 762 759 757 755 754 753 752 751 750 749 749 748 748 747 747 748 750 751 752 753 754 755 756 757 758 759 762 763 764 765 767 768 770 772 774 776 779 781 783 785 787 788 789 790 791 792 793 793 794 794
769 766 763 760 757 755 753 752 750 749 748 747 747 746 745 745 744 744 745 746 747 748 749 750 752 753 753 755 758 760 760 762 763 764 765 767 768 771 773 775 778 780 782 784 786 787 788 789 790 791 792 792
769 766 763 760 757 755 753 751 749 748 746 745 745 744 743 743 742 741 741 742 743 743 744 745 746 748 748 750 753 755 756 757 758 759 761 762 764 767 769 771 773 775 778 780 782 783 785 786 787 788 788 789
769 766 763 760 757 755 753 750 748 746 744 743 742 742 741 741 740 739 738 738 739 739 740 741 742 743 743 745 748 749 750 751 752 754 757 759 761 764 767 769 771 773 775 777 779 781 782 783 783 784 785 786
769 766 763 760 758 755 753 750 747 744 742 741 740 739 739 738 737 736 736 736 736 736 736 737 738 739 740 741 743 744 745 747 749 751 754 757 759 760 763 766 768 770 773 775 777 778 780 781 780 781 782 783
769 767 764 761 758 755 752 749 746 743 741 739 738 737 736 735 734 733 733 734 734 733 733 733 734 734 735 737 739 741 742 744 746 747 750 753 755 757 759 761 763 765 769 771 772 774 776 777 778 779 779 779
768 766 763 760 757 754 750 747 745 742 739 737 736 734 733 732 731 731 730 730 731 731 730 730 730 730 731 733 735 737 739 740 742 743 746 748 750 753 755 758 759 760 763 765 768 771 771 770 772 774 775 775
768 764 761 758 755 752 749 746 743 740 737 736 734 732 731 730 728 728 727 727 728 728 728 727 727 728 728 729 731 733 735 736 737 739 741 743 745 748 750 753 754 755 758 761 763 766 765 765 766 764 764 768
767 763 759 756 752 749 746 744 742 739 736 734 733 732 730 729 727 726 725 724 725 725 724 724 724 725 725 726 727 729 731 732 733 735 736 738 741 742 744 746 749 751 753 755 756 757 758 761 760 756 757 762
765 762 758 754 750 746 743 741 739 737 735 733 731 730 729 728 726 725 723 722 722 722 721 720 720 722 723 723 724 725 727 729 730 731 732 735 737 738 739 742 744 745 748 751 752 751 751 752 751 750 753 756
763 760 757 753 749 745 742 739 737 735 734 732 730 728 727 726 725 724 722 720 720 719 718 717 717 718 720 721 721 722 723 725 726 727 729 731 733 734 736 738 738 739 743 746 747 748 748 748 748 748 751 751
Wind_Speed
19 19 20 21 21 21 21 21 21 21 21 20 20 20 19 18 18 18 17 17 16 15 15 14 14 15 15 14 14 14 14 14 13 13 13 13 13 13 13 12 11 11 10 10 10 9 9 9 7 5 4 3
21 21 22 22 22 22 22 22 22 22 22 21 20 20 20 20 20 19 18 18 17 16 16 15 15 15 15 15 14 14 14 14 13 14 13 13 13 13 13 12 12 12 11 11 10 10 10 10 7 5 5 3
21 24 24 24 24 23 23 23 22 23 23 22 21 21 21 21 21 20 19 19 18 18 17 16 16 16 16 15 15 15 14 14 14 14 13 13 13 13 13 12 12 12 12 11 11 12 11 10 6 6 5 4
19 23 26 25 25 25 24 24 24 23 24 23 23 23 22 22 22 22 20 19 19 18 18 18 18 17 16 16 15 15 14 15 14 14 14 13 13 13 13 12 12 12 12 12 12 12 12 9 6 6 5 5
21 21 26 26 25 26 25 25 25 25 24 25 25 25 24 24 22 21 20 20 19 19 19 19 19 18 17 16 16 15 15 15 15 14 14 13 14 14 13 13 13 13 12 13 13 13 12 8 7 6 6 5
27 24 24 24 24 25 26 26 26 25 25 24 25 25 25 24 22 21 20 20 20 19 19 19 21 20 17 16 16 16 15 15 15 15 15 14 14 14 14 14 13 13 12 13 14 13 10 7 7 7 7 6
31 28 25 23 22 23 24 25 26 25 24 24 24 25 25 23 21 21 20 20 21 20 20 19 21 22 19 17 16 16 16 16 16 15 16 15 15 15 18 17 13 12 12 12 14 12 9 8 9 9 9 8
32 30 25 23 23 23 23 24 25 25 24 24 24 24 25 22 21 23 20 21 25 23 21 20 21 22 20 18 17 18 17 16 17 16 16 16 16 19 23 20 15 13 12 12 14 12 10 10 11 11 10 9
34 31 27 25 24 23 23 23 24 25 25 26 28 28 25 21 24 26 21 22 27 23 20 20 22 22 21 18 18 20 18 16 19 19 19 19 21 23 25 22 18 17 15 14 14 12 12 12 13 12 11 10
36 34 32 30 28 26 25 24 25 25 27 29 34 34 29 26 29 29 24 25 27 24 23 22 23 23 21 20 21 23 19 17 21 23 23 23 24 24 25 24 20 19 17 15 14 13 14 13 12 11 11 10
33 36 37 34 31 31 30 29 27 29 31 32 35 37 35 33 33 31 28 29 29 29 29 25 25 24 23 23 23 23 20 20 23 24 26 26 26 26 26 25 22 20 19 17 15 14 14 13 12 11 10 10
27 30 34 34 34 35 35 33 31 33 35 33 36 38 39 36 33 32 31 32 32 33 32 29 29 28 27 27 26 25 23 23 25 26 27 28 28 27 26 25 22 20 19 18 16 15 14 14 12 11 10 10
31 28 27 29 34 37 37 35 35 37 35 33 37 39 40 38 35 34 34 34 35 35 35 33 33 33 32 30 29 29 27 26 27 27 29 29 29 28 26 24 22 21 19 18 17 15 15 14 13 12 11 11
32 33 29 26 29 32 32 34 37 37 35 34 38 40 41 42 39 38 37 37 37 37 37 36 36 35 34 33 32 31 30 29 28 29 30 29 28 27 26 24 22 22 20 19 19 17 16 15 14 13 12 12
24 28 30 30 29 28 26 27 28 31 32 33 37 40 42 43 43 42 40 39 39 40 39 39 38 37 36 35 34 33 32 31 29 29 30 30 29 28 26 23 22 22 19 19 20 19 18 16 15 14 14 13
20 21 23 26 28 28 28 27 25 24 24 27 30 35 39 43 44 43 42 41 42 41 40 40 40 39 38 37 37 35 34 33 31 29 29 30 29 27 25 22 21 22 19 17 19 20 19 17 16 15 14 14
17 18 18 19 21 23 25 29 30 26 24 25 26 28 34 39 40 41 41 40 42 43 41 41 41 41 40 39 38 37 35 35 33 31 29 29 29 26 23 19 19 21 19 15 16 19 20 18 17 16 15 15
15 15 16 16 17 17 18 21 25 26 25 26 27 29 34 36 37 38 36 35 37 40 40 40 41 42 41 40 40 38 37 36 34 32 31 30 28 26 23 19 17 20 19 16 15 17 20 19 17 17 16 15
18 14 14 15 15 16 16 17 18 20 21 22 25 29 32 36 38 38 37 35 33 35 37 36 38 41 41 41 40 38 37 36 34 32 31 31 29 25 23 20 18 19 18 16 16 17 18 19 18 18 17 16
22 18 14 12 13 13 14 16 16 17 18 19 21 23 27 33 38 40 40 41 38 36 36 35 35 37 40 40 40 38 37 36 35 34 32 31 30 25 22 21 18 18 18 16 16 17 17 17 18 18 17 17
21 19 17 15 12 10 11 12 14 15 16 17 18 19 21 25 32 37 39 41 42 41 40 39 36 35 38 41 40 38 37 37 36 35 33 30 32 28 22 22 20 18 18 17 16 17 18 18 18 18 16 16
20 18 17 16 13 10 9 9 10 11 13 14 16 18 19 21 26 32 35 38 40 42 41 41 40 38 39 41 40 38 38 38 36 36 36 33 33 31 24 22 22 21 20 19 17 17 18 19 19 18 16 16
20 19 17 15 13 11 10 8 8 8 9 11 13 16 18 19 22 25 30 33 36 39 39 39 39 39 40 40 40 40 39 39 37 36 36 32 31 30 26 23 23 22 20 19 18 17 16 18 20 19 17 16
20 19 19 16 14 12 10 10 9 8 7 9 10 12 15 18 20 21 23 27 30 34 35 34 34 36 39 40 41 42 41 38 35 34 34 30 30 30 25 20 20 20 18 17 15 14 15 16 18 19 18 17
19 19 18 17 15 15 13 10 9 8 7 8 8 9 11 13 16 18 20 22 25 28 31 30 28 29 34 36 37 38 37 36 34 36 36 30 28 28 25 19 19 19 17 14 11 11 13 15 16 18 19 18
19 18 17 16 15 16 14 12 10 9 8 9 10 9 8 9 11 14 17 19 21 23 26 26 25 24 28 32 34 34 33 34 34 36 35 28 23 24 25 21 20 23 20 14 13 10 9 11 13 15 17 18
20 19 18 16 16 16 14 13 12 11 10 11 13 12 10 9 8 9 12 16 19 21 22 23 23 23 26 30 32 31 29 29 30 31 32 30 25 22 22 20 20 27 26 18 14 11 7 8 8 9 12 15
21 21 19 17 17 15 13 13 12 10 9 10 13 13 12 12 10 8 9 12 16 18 20 21 22 22 22 26 28 28 26 26 28 29 30 31 28 23 22 19 19 27 30 23 16 10 6 6 7 7 8 11
22 21 20 18 18 15 13 11 10 9 9 10 10 10 12 12 12 10 9 10 13 17 18 19 21 22 21 22 26 27 27 26 27 29 31 33 31 28 26 22 19 23 30 29 24 17 9 6 6 8 7 8
22 21 20 19 18 17 15 14 12 12 13 12 12 11 12 12 11 10 10 10 12 14 16 17 18 21 22 22 23 25 26 25 25 27 30 31 31 30 28 24 19 20 26 28 27 26 18 10 6 5 8 7
23 22 21 19 18 17 16 16 16 16 16 15 14 13 13 13 11 11 11 10 12 13 14 15 17 20 22 22 22 23 25 25 24 25 27 30 32 31 29 26 22 20 23 23 24 27 24 16 11 7 7 7
Wind_Direction
202 202 207 208 206 204 201 199 195 192 191 191 193 192 192 194 194 193 193 192 191 193 195 196 194 194 194 194 195 194 194 195 195 195 194 195 194 194 194 190 189 190 190 190 192 188 205 240 266 280 299 314
206 205 208 210 207 206 204 200 198 195 194 194 193 193 194 195 196 194 193 192 192 193 195 197 195 194 194 194 195 195 195 195 196 197 196 195 194 197 196 194 196 196 194 195 194 185 207 245 273 290 305 310
209 209 209 211 209 207 206 202 199 197 197 197 195 194 196 197 199 197 195 194 193 195 196 196 196 194 193 194 195 195 196 197 198 198 198 197 196 197 195 194 197 196 195 195 187 189 221 254 279 293 299 295
208 212 211 212 211 208 207 205 201 199 200 200 197 195 196 198 201 199 197 196 195 195 196 197 195 193 193 194 195 197 198 199 199 199 199 199 198 195 192 197 198 194 197 191 184 204 238 261 273 276 280 282
208 211 213 213 213 212 210 208 205 200 200 202 203 199 197 199 199 197 198 197 196 196 196 199 197 192 193 195 196 198 199 201 201 200 201 199 199 198 196 198 196 193 194 186 193 223 247 257 260 268 278 283
215 212 212 212 214 214 212 211 208 203 201 202 204 203 200 200 199 197 197 196 195 195 194 200 201 195 191 195 198 199 200 202 202 202 202 201 200 199 197 194 190 189 186 193 215 238 251 256 263 278 289 291
221 217 214 212 214 215 214 212 209 205 204 203 204 205 203 200 200 198 195 195 195 193 193 197 204 201 194 194 198 200 202 203 204 205 204 203 201 198 197 190 185 187 184 205 232 247 255 260 269 281 287 289
223 220 216 213 213 214 213 211 209 206 205 203 202 203 203 200 199 198 194 199 202 200 198 198 205 206 201 196 197 199 201 205 205 206 206 205 202 201 203 198 196 201 196 215 236 246 249 256 267 272 276 278
226 222 218 215 213 212 212 210 208 206 206 205 203 202 201 199 203 203 197 204 209 205 200 198 201 203 202 199 199 198 196 201 203 204 203 203 202 204 210 211 212 218 216 225 235 240 243 251 260 263 265 268
228 225 222 219 216 214 214 213 210 208 210 210 210 208 204 204 210 209 204 208 210 204 200 198 200 200 198 198 201 200 196 199 201 203 203 204 206 207 213 215 219 225 226 230 233 236 242 248 253 255 260 263
232 230 228 225 222 221 219 218 215 214 216 215 215 213 211 211 213 212 209 211 210 210 208 204 204 202 199 201 206 204 198 198 200 202 205 206 209 211 213 217 223 230 231 234 234 236 241 245 247 250 256 262
243 238 234 231 228 227 225 223 221 221 221 219 218 218 216 215 214 212 211 212 213 215 214 209 209 209 207 208 211 209 202 202 202 203 205 206 211 214 216 221 226 232 235 238 237 237 241 244 245 248 253 262
252 248 243 238 234 233 230 227 227 227 225 222 222 221 220 217 215 214 214 215 215 216 215 213 215 214 213 213 214 214 208 206 205 204 207 209 213 216 219 224 228 232 236 238 238 237 240 244 246 248 254 261
258 254 250 246 242 239 236 232 232 231 228 225 225 224 223 221 219 218 218 218 217 218 217 216 217 217 217 215 216 217 212 209 208 207 209 211 214 217 220 224 228 232 234 237 238 236 239 241 244 246 252 258
267 259 254 251 249 246 243 239 236 234 232 230 229 228 227 224 222 221 221 221 220 220 219 218 219 217 217 216 218 218 213 211 209 209 212 214 216 218 220 222 226 230 229 233 236 236 236 237 239 242 246 252
279 269 262 256 253 251 249 247 243 241 238 235 233 232 230 228 226 224 223 223 223 223 220 220 220 218 218 217 219 219 215 214 211 210 213 216 218 219 221 220 224 228 223 225 231 233 233 233 234 238 241 247
300 286 277 267 262 256 253 252 249 247 245 243 240 237 235 232 229 226 226 226 226 226 223 222 222 220 220 219 221 220 215 215 213 211 213 216 217 217 217 215 218 224 220 216 222 229 231 230 233 235 238 242
328 308 295 284 276 268 260 256 253 250 248 246 245 244 243 239 234 230 229 228 229 228 224 224 224 223 222 221 221 220 215 214 214 212 212 214 214 214 215 211 213 220 219 214 215 223 228 229 231 234 238 240
360 338 316 301 290 281 272 265 260 254 250 248 247 248 248 247 243 237 234 232 232 231 227 225 226 225 224 222 221 219 216 215 213 211 211 213 212 210 212 211 210 216 215 213 214 218 225 228 229 233 237 239
15 9 352 329 308 295 286 276 270 264 257 252 248 246 246 248 249 245 241 238 235 234 231 228 228 227 225 223 222 219 217 215 212 211 210 212 212 206 206 207 207 211 212 211 214 216 221 224 227 231 236 239
10 14 12 4 345 321 306 290 281 275 267 261 256 251 247 247 250 250 247 243 240 237 235 232 231 229 228 226 223 220 218 215 213 212 209 209 213 208 202 203 203 205 208 209 211 214 220 222 227 231 233 237
360 3 6 10 9 359 343 318 299 289 279 271 266 260 254 249 250 253 250 245 242 239 237 235 233 231 230 228 223 220 219 216 214 213 211 209 210 208 201 200 201 202 204 207 209 213 219 222 228 232 231 235
354 356 359 2 4 10 10 358 336 316 300 289 279 271 265 256 251 250 249 245 242 239 237 235 233 231 230 229 224 221 220 217 213 211 210 207 206 206 204 203 203 202 201 204 209 210 214 221 228 233 230 232
349 351 354 355 354 357 1 7 8 355 334 316 300 286 277 268 258 252 247 244 241 239 236 233 231 230 231 229 224 220 219 215 211 208 207 205 205 204 202 204 204 199 195 197 204 209 214 221 227 231 230 231
347 345 346 347 345 343 340 346 0 7 2 352 341 322 300 283 271 261 252 245 240 237 235 232 229 228 228 227 222 219 218 215 213 212 209 205 204 202 197 197 199 193 186 189 199 208 217 225 228 229 231 232
343 340 338 333 329 329 328 331 342 350 3 9 7 2 339 309 286 271 259 251 244 238 235 231 227 224 224 225 222 220 220 218 216 214 209 200 197 199 198 198 195 189 187 194 203 205 214 223 223 222 225 227
336 332 329 324 320 318 315 320 332 342 356 2 0 2 1 350 322 288 269 261 252 243 239 234 229 226 225 226 223 219 217 216 213 210 206 200 195 193 197 202 198 194 197 199 198 200 216 217 212 212 213 215
332 329 325 322 321 315 306 305 314 329 346 350 344 344 349 351 344 318 285 272 259 247 244 240 235 231 227 225 223 219 215 213 210 207 204 202 199 192 192 198 198 199 203 202 190 189 215 214 218 227 199 190
329 328 327 325 325 324 318 315 315 326 336 337 334 331 331 331 333 332 307 279 260 248 244 242 239 235 230 225 223 221 218 217 213 209 208 205 202 199 196 194 192 197 203 205 200 199 204 194 220 235 190 163
327 324 325 327 328 328 326 325 326 329 331 331 331 330 327 322 320 322 312 288 266 253 245 241 239 237 234 228 224 221 220 221 216 212 211 207 205 205 203 198 191 192 198 205 209 212 217 218 224 214 175 175
326 322 321 322 322 323 322 321 321 323 324 324 324 324 325 323 319 315 310 296 274 261 252 244 238 234 233 230 227 223 221 222 220 215 212 210 210 210 207 205 202 193 188 198 212 216 223 230 224 203 178 195